Date,TemperatureHighF,TemperatureAvgF,TemperatureLowF,DewpointHighF,DewpointAvgF,DewpointLowF,HumidityHigh,HumidityAvg,HumidityLow,PressureMaxIn,PressureMinIn,WindSpeedMaxMPH,WindSpeedAvgMPH,GustSpeedMaxMPH,PrecipitationSumIn
2013-2-1,70,49,31,29,21,7,73,41,10,30.19,30.10,9,3,10,0.00
2013-2-2,71,53,37,27,18,4,55,30,10,30.23,30.12,11,3,11,0.00
2013-2-3,62,52,45,42,31,17,71,46,18,30.15,29.98,25,3,25,0.00
2013-2-4,65,52,39,39,36,32,79,55,31,30.04,29.94,13,3,13,0.00
2013-2-5,68,53,38,43,35,27,89,55,22,30.03,29.93,13,4,13,0.00
2013-2-6,68,52,38,40,33,20,84,54,19,30.03,29.91,22,4,22,0.00
2013-2-7,65,51,37,40,29,16,85,48,15,30.09,29.97,22,3,22,0.00
2013-2-8,66,52,41,26,16,1,55,29,10,29.98,29.76,41,13,41,0.04
2013-2-9,50,41,29,36,23,13,95,51,26,29.97,29.75,38,12,38,0.01
2013-2-10,56,42,24,25,9,-7,81,33,10,29.97,29.86,21,5,21,0.00
2013-2-11,52,37,28,34,19,7,100,55,20,30.03,29.89,24,5,24,0.02
2013-2-12,46,33,22,33,24,8,100,73,24,30.13,30.02,11,2,11,0.07
2013-2-13,58,40,24,25,15,-2,81,46,10,30.10,30.01,9,3,9,0.00
2013-2-14,64,45,28,24,16,5,66,37,10,30.08,29.98,17,4,17,0.00
2013-2-15,64,48,36,26,14,-6,62,31,10,30.22,30.07,14,4,14,0.00
2013-2-16,67,50,33,14,7,-3,43,20,10,30.24,30.03,14,5,14,0.00
2013-2-17,71,53,34,12,5,-4,37,16,10,30.04,29.85,23,7,23,0.00
2013-2-18,67,52,36,16,5,-3,36,16,10,30.04,29.93,17,4,17,0.00
2013-2-19,62,51,40,34,19,4,46,28,14,29.95,29.69,46,15,46,0.57
2013-2-20,52,38,30,44,28,14,100,71,27,29.85,29.63,30,12,36,0.00
2013-2-21,49,36,24,30,26,21,96,70,42,29.95,29.85,11,4,11,0.02
2013-2-22,54,41,29,34,28,17,92,66,25,30.06,29.91,23,6,23,0.00
2013-2-23,54,34,28,29,26,23,86,74,32,30.06,29.97,8,3,8,0.00
2013-2-24,50,41,32,23,5,-11,49,24,10,29.98,29.77,43,16,43,0.40
2013-2-25,57,40,27,14,6,-3,50,26,10,30.10,29.97,16,4,16,0.00
2013-2-26,58,35,26,16,12,-2,61,42,10,29.98,29.92,8,3,8,0.11